FALCON 9 DEB (46733 NORAD) Tracking and Keplerian Element Data

This shows tracking and keplerian element data for the satellite.

Feedback or suggestion? Click here.




ElementValue
Catalog46733
NameFALCON 9 DEB
Epoch Orbit384
Epoch Day316.32036948
Epoch Year2020
RAAN345.8458
Inclination53.0399
Eccentricity0.0003111
Argument of Perigee50.5509
Mean Anonmoly309.5811
Mean Motion16.37798892
Decay Rate0.05038757
L11 46733U 20073BR 20316.32036948 .05038757 12326-4 47763-3 0 9995
L22 46733 53.0399 345.8458 0003111 50.5509 309.5811 16.37798892 3843

Live tracking and technical data element details for FALCON 9 DEB (NORAD 46733). FALCON 9 DEB can be tracked NOW for your location showing map with azimuth and elevation plus other details from your city location.

Track the satellite on the map from your city or location and see movement details for azimuth, elevation, latitude, longitude, range, height, and movement on the map or in text.







IsCatalogInMostPopularTable: catalog: 46733, numindb: 9
Update: records affected: 1



GetName: 46733 FALCON 9 DEB

Hit Count: updated at: Thu, 03 Dec 2020 07:21:05 GMT